Time,TemperatureF,DewpointF,PressureIn,WindDirection,WindDirectionDegrees,WindSpeedMPH,WindSpeedGustMPH,Humidity,HourlyPrecipIn,Conditions,Clouds,dailyrainin,SoftwareType,DateUTC
2013-05-03 00:12:00,66.0,66.0,-100.00,ESE,109,2.0,6.0,99,0.05,,,1.41,,2013-05-03 05:12:00,
2013-05-03 00:21:00,66.0,66.0,-100.00,ESE,109,2.0,6.0,99,0.05,,,1.41,,2013-05-03 05:21:00,
2013-05-03 00:32:00,66.0,66.0,-100.00,ESE,109,2.0,6.0,99,0.05,,,1.41,,2013-05-03 05:32:00,
2013-05-03 00:42:00,66.0,66.0,-100.00,ESE,109,2.0,6.0,99,0.05,,,1.41,,2013-05-03 05:42:00,
2013-05-03 01:12:00,66.0,66.0,-100.00,ESE,108,3.0,7.0,99,0.06,,,1.46,,2013-05-03 06:12:00,
2013-05-03 01:21:00,66.0,66.0,-100.00,ESE,108,3.0,7.0,99,0.06,,,1.46,,2013-05-03 06:21:00,
2013-05-03 01:32:00,66.0,66.0,-100.00,ESE,108,3.0,7.0,99,0.06,,,1.46,,2013-05-03 06:32:00,
2013-05-03 01:42:00,66.0,66.0,-100.00,ESE,108,3.0,7.0,99,0.06,,,1.46,,2013-05-03 06:42:00,
2013-05-03 02:11:00,65.0,65.0,-100.00,ESE,107,2.0,6.0,99,0.13,,,1.59,,2013-05-03 07:11:00,
2013-05-03 02:21:00,65.0,65.0,-100.00,ESE,107,2.0,6.0,99,0.13,,,1.59,,2013-05-03 07:21:00,
2013-05-03 02:31:00,65.0,65.0,-100.00,ESE,107,2.0,6.0,99,0.13,,,1.59,,2013-05-03 07:31:00,
2013-05-03 02:42:00,65.0,65.0,-100.00,ESE,107,2.0,6.0,99,0.13,,,1.59,,2013-05-03 07:42:00,
2013-05-03 03:11:00,65.0,65.0,-100.00,NNW,336,0.0,3.0,99,0.10,,,1.69,,2013-05-03 08:11:00,
2013-05-03 03:21:00,65.0,65.0,-100.00,NNW,336,0.0,3.0,99,0.10,,,1.69,,2013-05-03 08:21:00,
2013-05-03 03:32:00,65.0,65.0,-100.00,NNW,336,0.0,3.0,99,0.10,,,1.69,,2013-05-03 08:32:00,
2013-05-03 03:42:00,65.0,65.0,-100.00,NNW,336,0.0,3.0,99,0.10,,,1.69,,2013-05-03 08:42:00,
2013-05-03 04:12:00,64.0,64.0,-100.00,NNW,342,0.0,2.0,99,0.00,,,1.68,,2013-05-03 09:12:00,
2013-05-03 04:21:00,64.0,64.0,-100.00,NNW,342,0.0,2.0,99,0.00,,,1.68,,2013-05-03 09:21:00,
2013-05-03 04:32:00,64.0,64.0,-100.00,NNW,342,0.0,2.0,99,0.00,,,1.68,,2013-05-03 09:32:00,
2013-05-03 04:42:00,64.0,64.0,-100.00,NNW,342,0.0,2.0,99,0.00,,,1.68,,2013-05-03 09:42:00,
2013-05-03 05:12:00,64.0,64.0,-100.00,ENE,61,1.0,2.0,99,0.00,,,1.68,,2013-05-03 10:12:00,
2013-05-03 05:22:00,64.0,64.0,-100.00,ENE,61,1.0,2.0,99,0.00,,,1.68,,2013-05-03 10:22:00,
2013-05-03 05:32:00,64.0,64.0,-100.00,ENE,61,1.0,2.0,99,0.00,,,1.68,,2013-05-03 10:32:00,
2013-05-03 05:42:00,64.0,64.0,-100.00,ENE,61,1.0,2.0,99,0.00,,,1.68,,2013-05-03 10:42:00,
2013-05-03 06:11:00,64.0,64.0,-100.00,NNW,348,0.0,2.0,99,0.00,,,1.39,,2013-05-03 11:11:00,
2013-05-03 06:22:00,64.0,64.0,-100.00,NNW,348,0.0,2.0,99,0.00,,,1.39,,2013-05-03 11:22:00,
2013-05-03 06:32:00,64.0,64.0,-100.00,NNW,348,0.0,2.0,99,0.00,,,1.39,,2013-05-03 11:32:00,
2013-05-03 06:42:00,64.0,64.0,-100.00,NNW,348,0.0,2.0,99,0.00,,,1.39,,2013-05-03 11:42:00,
2013-05-03 07:11:00,64.0,64.0,-100.00,NW,306,1.0,3.0,99,0.00,,,1.38,,2013-05-03 12:11:00,
2013-05-03 07:21:00,64.0,64.0,-100.00,NW,306,1.0,3.0,99,0.00,,,1.38,,2013-05-03 12:21:00,
2013-05-03 07:32:00,64.0,64.0,-100.00,NW,306,1.0,3.0,99,0.00,,,1.38,,2013-05-03 12:32:00,
2013-05-03 07:42:00,64.0,64.0,-100.00,NW,306,1.0,3.0,99,0.00,,,1.38,,2013-05-03 12:42:00,
2013-05-03 08:11:00,65.0,65.0,-100.00,East,85,1.0,4.0,99,0.00,,,1.38,,2013-05-03 13:11:00,
2013-05-03 08:22:00,65.0,65.0,-100.00,East,85,1.0,4.0,99,0.00,,,1.38,,2013-05-03 13:22:00,
2013-05-03 08:32:00,65.0,65.0,-100.00,East,85,1.0,4.0,99,0.00,,,1.38,,2013-05-03 13:32:00,
2013-05-03 08:42:00,65.0,65.0,-100.00,East,85,1.0,4.0,99,0.00,,,1.38,,2013-05-03 13:42:00,
2013-05-03 09:11:00,69.0,68.0,-100.00,SE,127,3.0,7.0,98,0.01,,,1.39,,2013-05-03 14:11:00,
2013-05-03 09:22:00,69.0,68.0,-100.00,SE,127,3.0,7.0,98,0.01,,,1.39,,2013-05-03 14:22:00,
2013-05-03 09:32:00,69.0,68.0,-100.00,SE,127,3.0,7.0,98,0.01,,,1.39,,2013-05-03 14:32:00,
2013-05-03 09:42:00,69.0,68.0,-100.00,SE,127,3.0,7.0,98,0.01,,,1.39,,2013-05-03 14:42:00,
2013-05-03 10:11:00,71.0,66.0,-100.00,ESE,107,4.0,8.0,83,0.00,,,1.39,,2013-05-03 15:11:00,
2013-05-03 10:22:00,71.0,66.0,-100.00,ESE,107,4.0,8.0,83,0.00,,,1.39,,2013-05-03 15:22:00,
2013-05-03 10:32:00,71.0,66.0,-100.00,ESE,107,4.0,8.0,83,0.00,,,1.39,,2013-05-03 15:32:00,
2013-05-03 10:43:00,71.0,66.0,-100.00,ESE,107,4.0,8.0,83,0.00,,,1.39,,2013-05-03 15:43:00,
2013-05-03 11:13:00,73.0,66.0,-100.00,SSE,162,4.0,11.0,78,0.00,,,1.39,,2013-05-03 16:13:00,
2013-05-03 11:23:00,73.0,66.0,-100.00,SSE,162,4.0,11.0,78,0.00,,,1.39,,2013-05-03 16:23:00,
2013-05-03 11:32:00,73.0,66.0,-100.00,SSE,162,4.0,11.0,78,0.00,,,1.39,,2013-05-03 16:32:00,
2013-05-03 11:42:00,73.0,66.0,-100.00,SSE,162,4.0,11.0,78,0.00,,,1.39,,2013-05-03 16:42:00,
2013-05-03 12:12:00,73.0,65.0,-100.00,ESE,118,3.0,7.0,75,0.00,,,1.39,,2013-05-03 17:12:00,
2013-05-03 12:23:00,73.0,65.0,-100.00,ESE,118,3.0,7.0,75,0.00,,,1.39,,2013-05-03 17:23:00,
2013-05-03 12:32:00,73.0,65.0,-100.00,ESE,118,3.0,7.0,75,0.00,,,1.39,,2013-05-03 17:32:00,
2013-05-03 12:42:00,73.0,65.0,-100.00,ESE,118,3.0,7.0,75,0.00,,,1.39,,2013-05-03 17:42:00,
2013-05-03 13:12:00,78.0,67.0,-100.00,ESE,108,4.0,9.0,69,0.00,,,1.39,,2013-05-03 18:12:00,
2013-05-03 13:21:00,78.0,67.0,-100.00,ESE,108,4.0,9.0,69,0.00,,,1.39,,2013-05-03 18:21:00,
2013-05-03 13:32:00,78.0,67.0,-100.00,ESE,108,4.0,9.0,69,0.00,,,1.39,,2013-05-03 18:32:00,
2013-05-03 13:42:00,78.0,67.0,-100.00,ESE,108,4.0,9.0,69,0.00,,,1.39,,2013-05-03 18:42:00,
2013-05-03 14:11:00,75.0,64.0,-100.00,South,173,3.0,7.0,69,0.00,,,1.39,,2013-05-03 19:11:00,
2013-05-03 14:21:00,75.0,64.0,-100.00,South,173,3.0,7.0,69,0.00,,,1.39,,2013-05-03 19:21:00,
2013-05-03 14:32:00,75.0,64.0,-100.00,South,173,3.0,7.0,69,0.00,,,1.39,,2013-05-03 19:32:00,
2013-05-03 14:42:00,75.0,64.0,-100.00,South,173,3.0,7.0,69,0.00,,,1.39,,2013-05-03 19:42:00,
2013-05-03 15:11:00,72.0,63.0,-100.00,SSW,199,3.0,9.0,73,0.00,,,1.39,,2013-05-03 20:11:00,
2013-05-03 15:21:00,72.0,63.0,-100.00,SSW,199,3.0,9.0,73,0.00,,,1.39,,2013-05-03 20:21:00,
2013-05-03 15:32:00,72.0,63.0,-100.00,SSW,199,3.0,9.0,73,0.00,,,1.39,,2013-05-03 20:32:00,
2013-05-03 15:42:00,72.0,63.0,-100.00,SSW,199,3.0,9.0,73,0.00,,,1.39,,2013-05-03 20:42:00,
2013-05-03 16:11:00,67.0,65.0,-100.00,NW,317,6.0,11.0,94,0.09,,,1.48,,2013-05-03 21:11:00,
2013-05-03 16:21:00,67.0,65.0,-100.00,NW,317,6.0,11.0,94,0.09,,,1.48,,2013-05-03 21:21:00,
2013-05-03 16:33:00,67.0,65.0,-100.00,NW,317,6.0,11.0,94,0.09,,,1.48,,2013-05-03 21:33:00,
2013-05-03 16:42:00,67.0,65.0,-100.00,NW,317,6.0,11.0,94,0.09,,,1.48,,2013-05-03 21:42:00,
2013-05-03 17:13:00,61.0,60.0,-100.00,NW,315,4.0,14.0,96,0.16,,,1.64,,2013-05-03 22:13:00,
2013-05-03 17:22:00,61.0,60.0,-100.00,NW,315,4.0,14.0,96,0.16,,,1.64,,2013-05-03 22:22:00,
2013-05-03 17:32:00,61.0,60.0,-100.00,NW,315,4.0,14.0,96,0.16,,,1.64,,2013-05-03 22:32:00,
2013-05-03 17:42:00,61.0,60.0,-100.00,NW,315,4.0,14.0,96,0.16,,,1.64,,2013-05-03 22:42:00,
2013-05-03 19:11:00,54.0,53.0,-100.00,WNW,295,3.0,9.0,97,-99.99,,,0.95,,2013-05-04 00:11:00,
2013-05-03 19:23:00,54.0,53.0,-100.00,WNW,295,3.0,9.0,97,-99.99,,,0.95,,2013-05-04 00:23:00,
2013-05-03 19:32:00,54.0,53.0,-100.00,WNW,295,3.0,9.0,97,-99.99,,,0.95,,2013-05-04 00:32:00,
2013-05-03 19:41:00,54.0,53.0,-100.00,WNW,295,3.0,9.0,97,-99.99,,,0.95,,2013-05-04 00:41:00,
2013-05-03 20:11:00,54.0,53.0,-100.00,WNW,284,3.0,9.0,98,0.00,,,0.69,,2013-05-04 01:11:00,
2013-05-03 20:21:00,54.0,53.0,-100.00,WNW,284,3.0,9.0,98,0.00,,,0.69,,2013-05-04 01:21:00,
2013-05-03 20:32:00,54.0,53.0,-100.00,WNW,284,3.0,9.0,98,0.00,,,0.69,,2013-05-04 01:32:00,
2013-05-03 20:41:00,54.0,53.0,-100.00,WNW,284,3.0,9.0,98,0.00,,,0.69,,2013-05-04 01:41:00,
2013-05-03 21:11:00,52.0,51.0,-100.00,NW,313,4.0,11.0,98,0.02,,,0.66,,2013-05-04 02:11:00,
2013-05-03 21:21:00,52.0,51.0,-100.00,NW,313,4.0,11.0,98,0.02,,,0.66,,2013-05-04 02:21:00,
2013-05-03 21:32:00,52.0,51.0,-100.00,NW,313,4.0,11.0,98,0.02,,,0.66,,2013-05-04 02:32:00,
2013-05-03 21:41:00,52.0,51.0,-100.00,NW,313,4.0,11.0,98,0.02,,,0.66,,2013-05-04 02:41:00,
2013-05-03 22:11:00,51.0,50.0,-100.00,NW,323,3.0,10.0,98,0.02,,,0.68,,2013-05-04 03:11:00,
2013-05-03 22:22:00,51.0,50.0,-100.00,NW,323,3.0,10.0,98,0.02,,,0.68,,2013-05-04 03:22:00,
2013-05-03 22:33:00,51.0,50.0,-100.00,NW,323,3.0,10.0,98,0.02,,,0.68,,2013-05-04 03:33:00,
2013-05-03 22:43:00,51.0,50.0,-100.00,NW,323,3.0,10.0,98,0.02,,,0.68,,2013-05-04 03:43:00,
2013-05-03 23:12:00,49.0,48.0,-100.00,WNW,299,4.0,12.0,98,0.08,,,0.76,,2013-05-04 04:12:00,
2013-05-03 23:22:00,49.0,48.0,-100.00,WNW,299,4.0,12.0,98,0.08,,,0.76,,2013-05-04 04:22:00,
2013-05-03 23:33:00,49.0,48.0,-100.00,WNW,299,4.0,12.0,98,0.08,,,0.76,,2013-05-04 04:33:00,
2013-05-03 23:42:00,49.0,48.0,-100.00,WNW,299,4.0,12.0,98,0.08,,,0.76,,2013-05-04 04:42:00,